When you browse on this site, cookies collect data to enhance your experience and personalize the content and advertising you see.
Visit our Privacy Policy to learn more. By continuing to use the site, you agree to this use of cookies and data.

Hourly Weather Adelaide

Today, 2 July, Thursday

Time Temperature Precipitation Wind Pressure Humidity
00:00 +10°C° 0.3 mm 8 mps 755 mmHg 78%
01:00 +9°C° 0.1 mm 8 mps 755 mmHg 78%
02:00 +9°C° 0.1 mm 7 mps 755 mmHg 77%
03:00 +9°C° 0 mm 7 mps 756 mmHg 76%
04:00 +9°C° 0.1 mm 7 mps 756 mmHg 76%
05:00 +9°C° 0.1 mm 6 mps 757 mmHg 77%
06:00 +9°C° 0.1 mm 6 mps 757 mmHg 77%
07:00 +9°C° 0.1 mm 6 mps 757 mmHg 75%
08:00 +10°C° 0.1 mm 6 mps 758 mmHg 73%
09:00 +10°C° 0 mm 5 mps 759 mmHg 74%
10:00 +12°C° 0.2 mm 5 mps 759 mmHg 72%
11:00 +11°C° 0.2 mm 6 mps 759 mmHg 70%
12:00 +11°C° 0.2 mm 7 mps 758 mmHg 68%
13:00 +11°C° 0.2 mm 7 mps 759 mmHg 68%
14:00 +11°C° 0.2 mm 7 mps 759 mmHg 68%
15:00 +11°C° 0 mm 6 mps 759 mmHg 67%
16:00 +12°C° 0.1 mm 5 mps 760 mmHg 71%
17:00 +10°C° 0.1 mm 5 mps 760 mmHg 74%
18:00 +9°C° 0.1 mm 5 mps 760 mmHg 77%
19:00 +9°C° 0.1 mm 5 mps 760 mmHg 78%
20:00 +10°C° 0.1 mm 5 mps 761 mmHg 79%
21:00 +10°C° 0 mm 3 mps 762 mmHg 81%
22:00 +10°C° 0 mm 4 mps 762 mmHg 83%
23:00 +10°C° 0 mm 4 mps 762 mmHg 85%

Tomorrow, 3 July, Friday

Time Temperature Precipitation Wind Pressure Humidity
00:00 +10°C° 0 mm 4 mps 762 mmHg 86%
01:00 +9°C° 0.2 mm 5 mps 762 mmHg 86%
02:00 +10°C° 0.2 mm 5 mps 761 mmHg 87%
03:00 +10°C° 0.2 mm 6 mps 761 mmHg 87%
04:00 +10°C° 0.4 mm 6 mps 761 mmHg 87%
05:00 +10°C° 0.4 mm 7 mps 761 mmHg 87%
06:00 +11°C° 0.4 mm 7 mps 761 mmHg 87%
07:00 +11°C° 0.5 mm 6 mps 762 mmHg 86%
08:00 +11°C° 0.5 mm 6 mps 763 mmHg 85%
09:00 +13°C° 0.5 mm 5 mps 763 mmHg 84%
10:00 +13°C° 0.1 mm 6 mps 764 mmHg 80%
11:00 +13°C° 0.1 mm 6 mps 764 mmHg 75%
12:00 +14°C° 0.1 mm 6 mps 764 mmHg 71%
13:00 +13°C° 0 mm 6 mps 764 mmHg 69%
14:00 +13°C° 0 mm 6 mps 765 mmHg 67%
15:00 +11°C° 0 mm 6 mps 765 mmHg 65%
16:00 +11°C° 0 mm 6 mps 765 mmHg 67%
17:00 +10°C° 0 mm 5 mps 766 mmHg 69%
18:00 +9°C° 0 mm 5 mps 767 mmHg 72%
19:00 +10°C° 0 mm 4 mps 767 mmHg 73%
20:00 +10°C° 0 mm 4 mps 767 mmHg 74%
21:00 +8°C° 0 mm 4 mps 768 mmHg 75%
22:00 +8°C° 0 mm 4 mps 768 mmHg 76%
23:00 +9°C° 0 mm 3 mps 768 mmHg 77%

Day after tomorrow, 4 July, Saturday

Time Temperature Precipitation Wind Pressure Humidity
00:00 +9°C° 0 mm 3 mps 768 mmHg 78%
01:00 +9°C° 0 mm 3 mps 768 mmHg 79%
02:00 +10°C° 0 mm 3 mps 768 mmHg 80%
03:00 +10°C° 0 mm 3 mps 768 mmHg 81%
04:00 +10°C° 0 mm 3 mps 769 mmHg 82%
05:00 +9°C° 0 mm 3 mps 769 mmHg 84%
06:00 +9°C° 0 mm 3 mps 769 mmHg 86%
07:00 +10°C° 0 mm 3 mps 769 mmHg 84%
08:00 +11°C° 0 mm 3 mps 769 mmHg 82%
09:00 +12°C° 0 mm 3 mps 770 mmHg 80%
10:00 +12°C° 0 mm 3 mps 769 mmHg 79%
11:00 +12°C° 0 mm 4 mps 769 mmHg 79%
12:00 +13°C° 0 mm 4 mps 769 mmHg 78%
13:00 +13°C° 0.1 mm 4 mps 769 mmHg 82%
14:00 +13°C° 0.1 mm 4 mps 768 mmHg 86%
15:00 +13°C° 0.1 mm 4 mps 768 mmHg 90%
16:00 +12°C° 0.1 mm 4 mps 768 mmHg 91%
17:00 +12°C° 0.1 mm 4 mps 768 mmHg 91%
18:00 +12°C° 0.1 mm 3 mps 769 mmHg 92%
19:00 +12°C° 0.1 mm 3 mps 769 mmHg 92%
20:00 +12°C° 0.1 mm 3 mps 769 mmHg 92%
21:00 +12°C° 0.1 mm 3 mps 769 mmHg 92%
22:00 +12°C° 0.1 mm 3 mps 769 mmHg 91%
23:00 +12°C° 0.1 mm 2 mps 769 mmHg 91%

5 July, Sunday

Time Temperature Precipitation Wind Pressure Humidity
00:00 +12°C° 0.1 mm 2 mps 769 mmHg 91%
01:00 +12°C° 0 mm 2 mps 769 mmHg 91%
02:00 +12°C° 0 mm 1 mps 769 mmHg 90%
03:00 +11°C° 0 mm 1 mps 769 mmHg 90%
04:00 +11°C° 0 mm 1 mps 769 mmHg 90%
05:00 +11°C° 0 mm 1 mps 769 mmHg 91%
06:00 +10°C° 0 mm 1 mps 769 mmHg 91%
07:00 +11°C° 0 mm 1 mps 769 mmHg 89%
08:00 +12°C° 0 mm 1 mps 769 mmHg 88%
09:00 +13°C° 0 mm 1 mps 770 mmHg 86%
10:00 +13°C° 0.1 mm 1 mps 769 mmHg 84%
11:00 +14°C° 0.1 mm 1 mps 769 mmHg 82%
12:00 +14°C° 0.1 mm 1 mps 769 mmHg 79%
13:00 +14°C° 0.1 mm 1 mps 769 mmHg 81%
14:00 +14°C° 0.1 mm 2 mps 769 mmHg 82%
15:00 +14°C° 0.1 mm 2 mps 768 mmHg 84%
16:00 +13°C° 0.1 mm 2 mps 769 mmHg 85%
17:00 +13°C° 0.1 mm 2 mps 769 mmHg 86%
18:00 +13°C° 0.1 mm 2 mps 769 mmHg 87%
19:00 +12°C° 0 mm 2 mps 769 mmHg 87%
20:00 +12°C° 0 mm 1 mps 769 mmHg 86%
21:00 +11°C° 0 mm 1 mps 770 mmHg 86%
22:00 +11°C° 0 mm 1 mps 769 mmHg 87%
23:00 +10°C° 0 mm 1 mps 769 mmHg 87%

6 July, Monday

Time Temperature Precipitation Wind Pressure Humidity
00:00 +10°C° 0 mm 1 mps 769 mmHg 87%
01:00 +10°C° 0 mm 1 mps 769 mmHg 88%
02:00 +10°C° 0 mm 1 mps 769 mmHg 89%
03:00 +9°C° 0 mm 1 mps 769 mmHg 89%
04:00 +9°C° 0 mm 1 mps 770 mmHg 90%
05:00 +9°C° 0 mm 1 mps 770 mmHg 90%
06:00 +9°C° 0 mm 1 mps 770 mmHg 90%
07:00 +10°C° 0 mm 1 mps 770 mmHg 88%
08:00 +11°C° 0 mm 1 mps 771 mmHg 85%
09:00 +12°C° 0 mm 1 mps 771 mmHg 82%
10:00 +13°C° 0 mm 1 mps 771 mmHg 77%
11:00 +13°C° 0 mm 1 mps 771 mmHg 72%
12:00 +14°C° 0 mm 1 mps 770 mmHg 68%
13:00 +14°C° 0 mm 2 mps 770 mmHg 68%
14:00 +14°C° 0 mm 2 mps 770 mmHg 68%
15:00 +14°C° 0 mm 2 mps 770 mmHg 69%
16:00 +13°C° 0 mm 2 mps 770 mmHg 73%
17:00 +11°C° 0 mm 3 mps 770 mmHg 78%
18:00 +10°C° 0 mm 3 mps 770 mmHg 82%
19:00 +9°C° 0 mm 3 mps 770 mmHg 83%
20:00 +9°C° 0 mm 3 mps 771 mmHg 84%
21:00 +8°C° 0 mm 3 mps 771 mmHg 85%
22:00 +8°C° 0 mm 2 mps 771 mmHg 85%
23:00 +8°C° 0 mm 2 mps 771 mmHg 85%

7 July, Tuesday

Time Temperature Precipitation Wind Pressure Humidity
00:00 +8°C° 0 mm 2 mps 771 mmHg 85%
01:00 +8°C° 0 mm 2 mps 770 mmHg 85%
02:00 +8°C° 0 mm 2 mps 770 mmHg 84%
03:00 +7°C° 0 mm 2 mps 770 mmHg 84%
04:00 +7°C° 0 mm 2 mps 770 mmHg 84%
05:00 +7°C° 0 mm 2 mps 771 mmHg 84%
06:00 +8°C° 0 mm 1 mps 771 mmHg 84%
07:00 +8°C° 0 mm 2 mps 771 mmHg 80%
08:00 +9°C° 0 mm 2 mps 771 mmHg 76%
09:00 +10°C° 0 mm 2 mps 771 mmHg 72%
10:00 +12°C° 0 mm 1 mps 771 mmHg 69%
11:00 +13°C° 0 mm 1 mps 770 mmHg 65%
12:00 +14°C° 0 mm 1 mps 770 mmHg 61%
13:00 +14°C° 0 mm 1 mps 770 mmHg 63%
14:00 +14°C° 0 mm 2 mps 769 mmHg 65%
15:00 +14°C° 0 mm 2 mps 769 mmHg 66%
16:00 +13°C° 0 mm 2 mps 769 mmHg 69%
17:00 +12°C° 0 mm 2 mps 769 mmHg 72%
18:00 +10°C° 0 mm 2 mps 769 mmHg 75%
19:00 +10°C° 0 mm 2 mps 769 mmHg 78%
20:00 +9°C° 0 mm 2 mps 769 mmHg 80%
21:00 +8°C° 0 mm 2 mps 769 mmHg 82%
22:00 +8°C° 0 mm 2 mps 769 mmHg 82%
23:00 +9°C° 0 mm 1 mps 769 mmHg 82%
Show more